TimeEST,TemperatureF,Dew PointF,Humidity,Sea Level PressureIn,VisibilityMPH,Wind Direction,Wind SpeedMPH,Gust SpeedMPH,PrecipitationIn,Events,Conditions,WindDirDegrees,DateUTC
12:53 AM,46.0,37.0,71,29.80,10.0,SSE,3.5,-,0.00,Rain,Light Rain,160,2014-01-14 05:53:00
1:53 AM,44.1,37.0,76,29.79,10.0,SSE,3.5,-,0.00,,Overcast,150,2014-01-14 06:53:00
2:53 AM,46.9,36.0,66,29.78,10.0,South,5.8,-,N/A,,Overcast,170,2014-01-14 07:53:00
3:53 AM,48.0,37.0,66,29.76,10.0,South,8.1,-,0.00,,Overcast,180,2014-01-14 08:53:00
4:53 AM,48.9,36.0,61,29.75,10.0,SSW,5.8,-,0.00,,Overcast,210,2014-01-14 09:53:00
5:53 AM,50.0,37.0,61,29.75,10.0,SSW,8.1,-,0.00,,Overcast,200,2014-01-14 10:53:00
6:53 AM,48.0,39.0,71,29.76,10.0,SSE,5.8,-,0.01,,Overcast,150,2014-01-14 11:53:00
7:53 AM,46.0,39.9,79,29.76,10.0,Calm,Calm,-,0.01,,Overcast,0,2014-01-14 12:53:00
8:53 AM,46.0,41.0,83,29.76,7.0,South,3.5,-,0.01,Rain,Light Rain,180,2014-01-14 13:53:00
9:53 AM,46.0,42.1,86,29.77,10.0,South,4.6,-,0.00,Rain,Light Rain,190,2014-01-14 14:53:00
10:53 AM,46.9,43.0,86,29.76,10.0,Calm,Calm,-,0.01,Rain,Light Rain,0,2014-01-14 15:53:00
11:39 AM,46.9,43.0,86,29.78,2.5,Calm,Calm,-,0.05,Rain,Rain,0,2014-01-14 16:39:00
11:49 AM,46.4,44.6,93,29.77,6.0,Calm,Calm,-,0.05,Rain,Light Rain,0,2014-01-14 16:49:00
11:53 AM,46.9,44.1,90,29.77,8.0,Calm,Calm,-,0.05,Rain,Light Rain,0,2014-01-14 16:53:00
12:53 PM,48.0,43.0,83,29.76,5.0,West,5.8,-,0.03,Rain,Light Rain,280,2014-01-14 17:53:00
1:53 PM,48.9,44.1,83,29.71,10.0,Calm,Calm,-,0.02,,Overcast,0,2014-01-14 18:53:00
2:53 PM,48.0,44.1,86,29.73,10.0,SSW,3.5,-,N/A,,Overcast,200,2014-01-14 19:53:00
3:53 PM,48.9,44.1,83,29.77,10.0,SW,4.6,-,N/A,,Scattered Clouds,230,2014-01-14 20:53:00
4:53 PM,48.0,39.9,74,29.81,10.0,WNW,5.8,-,0.00,,Scattered Clouds,290,2014-01-14 21:53:00
5:53 PM,48.0,36.0,63,29.83,10.0,WNW,6.9,-,0.00,,Clear,300,2014-01-14 22:53:00
6:53 PM,46.0,34.0,63,29.85,10.0,West,5.8,-,N/A,,Clear,280,2014-01-14 23:53:00
7:53 PM,39.9,34.0,79,29.87,10.0,Calm,Calm,-,N/A,,Clear,0,2014-01-15 00:53:00
8:53 PM,37.0,32.0,82,29.89,10.0,WSW,3.5,-,N/A,,Clear,240,2014-01-15 01:53:00
9:53 PM,34.0,30.0,85,29.91,9.0,SW,4.6,-,N/A,,Clear,220,2014-01-15 02:53:00
10:53 PM,30.9,28.0,89,29.90,5.0,West,4.6,-,N/A,,Clear,260,2014-01-15 03:53:00
11:53 PM,28.9,27.0,92,29.90,3.0,Calm,Calm,-,N/A,,Clear,0,2014-01-15 04:53:00